Location: Unspecified
(35.7250°N, 0.0000°E)
Time: 23:14:11
(UTC+00:00)

SR - All Passes

Search period start: 20 June 2019 00:00
Search period end: 30 June 2019 00:00
Orbit: 582 x 874 km, 66.7° (Epoch: 20 June)

Date Brightness Start Highest point End Pass type
(mag) Time Alt. Az. Time Alt. Az. Time Alt. Az.
20 Jun - 03:05:05 10° S 03:08:44 28° ESE 03:12:24 10° NE visible
20 Jun - 04:47:25 10° WSW 04:50:43 22° NW 04:54:03 10° N daylight
20 Jun - 11:48:18 10° NNE 11:51:04 15° NE 11:53:56 10° E daylight
20 Jun - 13:28:31 10° NNW 13:33:30 72° WSW 13:38:55 10° SSE daylight
21 Jun - 02:17:58 10° SE 02:19:26 12° ESE 02:20:53 10° E visible
21 Jun - 03:56:49 10° SW 04:00:55 48° WNW 04:05:05 10° NNE visible
21 Jun - 12:39:00 10° NNW 12:43:53 54° ENE 12:49:10 10° SE daylight
21 Jun - 14:22:22 10° WNW 14:25:35 17° WSW 14:28:56 10° SW daylight
22 Jun - 03:07:06 10° SSW 03:11:19 67° ESE 03:15:33 10° NNE visible
22 Jun - 04:52:34 10° WNW 04:53:48 11° NW 04:55:04 10° NNW daylight
22 Jun - 11:49:55 10° N 11:54:07 27° NE 11:58:36 10° ESE daylight
22 Jun - 13:31:35 10° NW 13:36:11 35° WSW 13:41:07 10° S daylight
23 Jun - 02:18:20 10° SSE 02:21:53 26° ESE 02:25:26 10° NE visible
23 Jun - 04:00:25 10° WSW 04:03:49 23° NW 04:07:16 10° N visible
23 Jun - 11:01:35 10° NNE 11:04:10 14° NE 11:06:52 10° E daylight
23 Jun - 12:41:37 10° NNW 12:46:39 77° WSW 12:52:06 10° SSE daylight
24 Jun - 01:31:42 10° ESE 01:32:35 11° ESE 01:33:28 10° E visible
24 Jun - 03:09:54 10° SW 03:14:02 53° WNW 03:18:14 10° NNE visible
24 Jun - 11:52:08 10° NNW 11:57:01 51° ENE 12:02:17 10° SE daylight
24 Jun - 13:35:19 10° WNW 13:38:45 18° WSW 13:42:21 10° SSW daylight
25 Jun - 02:20:17 10° SSW 02:24:27 61° ESE 02:28:40 10° NE visible
25 Jun - 04:05:15 10° WNW 04:06:54 12° NW 04:08:32 10° NNW visible
25 Jun - 11:03:06 10° N 11:07:15 26° NE 11:11:39 10° ESE daylight
25 Jun - 12:44:38 10° NW 12:49:20 38° WSW 12:54:23 10° S daylight
26 Jun - 01:31:35 10° SSE 01:35:02 24° ESE 01:38:29 10° NE visible
26 Jun - 03:13:25 10° WSW 03:16:55 25° NW 03:20:28 10° N visible
26 Jun - 10:14:52 10° NNE 10:17:17 13° NE 10:19:46 10° ENE daylight
26 Jun - 11:54:44 10° NNW 11:59:49 82° WSW 12:05:18 10° SSE daylight
27 Jun - 02:22:59 10° SW 02:27:09 57° WNW 02:31:23 10° NNE visible
27 Jun - 11:05:17 10° NNW 11:10:10 48° ENE 11:15:25 10° SE daylight
27 Jun - 12:48:17 10° WNW 12:51:56 19° WSW 12:55:45 10° SSW daylight
28 Jun - 01:33:26 10° SSW 01:37:35 56° ESE 01:41:46 10° NE visible
28 Jun - 03:18:03 10° WNW 03:19:58 13° NW 03:21:56 10° NNW visible
28 Jun - 10:16:17 10° N 10:20:22 24° NE 10:24:43 10° ESE daylight
28 Jun - 11:57:42 10° NW 12:02:30 41° WSW 12:07:39 10° S daylight
29 Jun - 00:44:52 10° SSE 00:48:11 22° ESE 00:51:31 10° ENE visible
29 Jun - 02:26:25 10° WSW 02:30:01 26° NW 02:33:41 10° N visible
29 Jun - 09:28:11 10° NNE 09:30:23 13° NE 09:32:39 10° ENE daylight
29 Jun - 11:07:51 10° NNW 11:12:58 87° WSW 11:18:29 10° SSE daylight
